This is the latest recevied weather packets stored in our database for station/object HB9GFF-10. If no packets are shown the sender has not sent any weather packets the latest 10 day(s).
| Time | Temp. | Humidity | Pressure | Rain* | Wind** | Luminosity | Snow |
|---|---|---|---|---|---|---|---|
| 1778323204 | 22.78° C | 48% | 954 hPa | - | - | - | - |
| 1778323138 | 21.67° C | 43% | 954 hPa | - | - | - | - |
| 1778323073 | 22.22° C | 48% | 954 hPa | - | - | - | - |
| 1778323007 | 21.67° C | 43% | 954 hPa | - | - | - | - |
| 1778322942 | 22.22° C | 44% | 954 hPa | - | - | - | - |
| 1778322877 | 22.78° C | 46% | 954 hPa | - | - | - | - |
| 1778322811 | 22.78° C | 48% | 954 hPa | - | - | - | - |
| 1778322746 | 22.78° C | 51% | 954 hPa | - | - | - | - |
| 1778322680 | 22.22° C | 47% | 954 hPa | - | - | - | - |
| 1778322615 | 21.67° C | 45% | 954 hPa | - | - | - | - |
| 1778322550 | 22.78° C | 46% | 954 hPa | - | - | - | - |
| 1778322484 | 22.78° C | 45% | 954 hPa | - | - | - | - |
| 1778322419 | 22.22° C | 46% | 954 hPa | - | - | - | - |
| 1778322353 | 22.22° C | 44% | 954 hPa | - | - | - | - |
| 1778322288 | 22.22° C | 44% | 954 hPa | - | - | - | - |
| 1778322223 | 22.78° C | 46% | 954 hPa | - | - | - | - |
| 1778322157 | 22.78° C | 48% | 954 hPa | - | - | - | - |
| 1778322092 | 22.78° C | 51% | 954 hPa | - | - | - | - |
| 1778322026 | 22.78° C | 47% | 954 hPa | - | - | - | - |
| 1778321961 | 22.22° C | 49% | 954 hPa | - | - | - | - |
| 1778321895 | 22.22° C | 48% | 954 hPa | - | - | - | - |
| 1778321830 | 22.78° C | 47% | 954 hPa | - | - | - | - |
| 1778321765 | 22.78° C | 46% | 954 hPa | - | - | - | - |
| 1778321699 | 22.22° C | 48% | 954 hPa | - | - | - | - |
| 1778321634 | 22.22° C | 48% | 954 hPa | - | - | - | - |
* Rain since midnight (hover to see other rain measurements)
** Current wind speed in m/s (hover to see current wind gust speed)